YDC YCIN-YKLC

Flight info

Callsign YDC
Flight time N/A
Altitude 4500
Route VFR
Aircraft BE58/L-SDFGRY/C

Departure

Time 2026-05-06 11:11
Airport RAAF Base Curtin (YCIN)

Arrival

Time N/A
Airport Koolan Central Airport (YKLC)
Time Latitude Longitude Altitude Speed Heading
2026-05-06 11:10 -17.45316 123.89007 1859 ft 179 kts 354°
2026-05-06 11:11 -17.44068 123.88897 1906 ft 179 kts 354°
2026-05-06 11:11 -17.42822 123.88782 1960 ft 180 kts 354°
2026-05-06 11:11 -17.41590 123.88665 2015 ft 180 kts 354°
2026-05-06 11:11 -17.40341 123.88543 2068 ft 180 kts 354°
2026-05-06 11:12 -17.39087 123.88417 2117 ft 181 kts 354°
2026-05-06 11:12 -17.37835 123.88286 2171 ft 181 kts 354°
2026-05-06 11:12 -17.36594 123.88151 2234 ft 179 kts 353°
2026-05-06 11:12 -17.35358 123.88010 2285 ft 178 kts 353°
2026-05-06 11:13 -17.34125 123.87865 2337 ft 178 kts 353°
2026-05-06 11:13 -17.32896 123.87715 2379 ft 178 kts 353°
2026-05-06 11:13 -17.31669 123.87559 2418 ft 178 kts 353°
2026-05-06 11:13 -17.30462 123.87402 2447 ft 178 kts 352°
2026-05-06 11:14 -17.29233 123.87236 2489 ft 178 kts 352°
2026-05-06 11:14 -17.28034 123.86960 2531 ft 178 kts 333°
2026-05-06 11:14 -17.27233 123.86001 2562 ft 180 kts 290°
2026-05-06 11:14 -17.27268 123.84714 2589 ft 182 kts 249°
2026-05-06 11:15 -17.27848 123.83531 2642 ft 182 kts 249°
2026-05-06 11:15 -17.28047 123.82237 2667 ft 181 kts 266°
2026-05-06 11:15 -17.28182 123.80933 2694 ft 181 kts 254°
2026-05-06 11:15 -17.28701 123.79726 2735 ft 182 kts 244°
2026-05-06 11:16 -17.29342 123.78586 2769 ft 184 kts 226°
2026-05-06 11:16 -17.30318 123.77725 2803 ft 183 kts 232°
2026-05-06 11:16 -17.31016 123.76611 2853 ft 183 kts 239°
2026-05-06 11:16 -17.31675 123.75471 2899 ft 183 kts 240°
2026-05-06 11:17 -17.32318 123.74319 2945 ft 183 kts 240°
2026-05-06 11:17 -17.32877 123.73142 2988 ft 183 kts 255°
2026-05-06 11:17 -17.33106 123.71833 3005 ft 182 kts 263°
2026-05-06 11:17 -17.33309 123.70520 3040 ft 183 kts 261°
2026-05-06 11:18 -17.33539 123.69207 3081 ft 183 kts 261°
2026-05-06 11:18 -17.33771 123.67898 3120 ft 183 kts 261°
2026-05-06 11:18 -17.34004 123.66605 3171 ft 183 kts 259°
2026-05-06 11:18 -17.34557 123.65411 3197 ft 186 kts 224°
2026-05-06 11:19 -17.35723 123.64878 3221 ft 187 kts 183°
2026-05-06 11:19 -17.36885 123.65223 3245 ft 187 kts 144°
2026-05-06 11:19 -17.37599 123.66318 3266 ft 185 kts 103°
2026-05-06 11:19 -17.37453 123.67617 3278 ft 183 kts 61°
2026-05-06 11:20 -17.36541 123.68472 3315 ft 182 kts 20°
2026-05-06 11:20 -17.35302 123.68489 3356 ft 181 kts 341°
2026-05-06 11:20 -17.34313 123.67709 3391 ft 183 kts 304°
2026-05-06 11:20 -17.33768 123.66530 3288 ft 173 kts 296°
2026-05-06 11:21 -17.33273 123.65412 2908 ft 166 kts 295°
2026-05-06 11:21 -17.32817 123.64358 2570 ft 153 kts 295°
2026-05-06 11:21 -17.32458 123.63417 2431 ft 128 kts 273°
2026-05-06 11:21 -17.33070 123.62890 1988 ft 137 kts 174°
2026-05-06 11:22 -17.33955 123.63111 1833 ft 125 kts 166°
2026-05-06 11:22 -17.34754 123.63326 1759 ft 112 kts 167°
2026-05-06 11:22 -17.35460 123.63503 1726 ft 98 kts 166°
2026-05-06 11:22 -17.36129 123.63698 1627 ft 107 kts 165°
2026-05-06 11:23 -17.36847 123.64011 1667 ft 115 kts 145°
2026-05-06 11:23 -17.37254 123.64712 1625 ft 124 kts 107°
2026-05-06 11:23 -17.37560 123.65556 1573 ft 121 kts 109°
2026-05-06 11:23 -17.37854 123.66323 1494 ft 105 kts 111°
2026-05-06 11:24 -17.38146 123.67008 1262 ft 103 kts 113°
2026-05-06 11:24 -17.38466 123.67652 1060 ft 97 kts 122°
2026-05-06 11:24 -17.38353 123.68200 901 ft 94 kts
2026-05-06 11:24 -17.37812 123.67798 547 ft 108 kts 307°
2026-05-06 11:25 -17.37493 123.67060 97 ft 115 kts 293°
2026-05-06 11:25 -17.37240 123.66347 25 ft 93 kts 293°
2026-05-06 11:25 -17.37020 123.65732 69 ft 94 kts 293°
2026-05-06 11:25 -17.36778 123.65070 341 ft 100 kts 293°
2026-05-06 11:26 -17.36435 123.64419 605 ft 111 kts 330°
2026-05-06 11:26 -17.35647 123.64648 803 ft 140 kts 47°
2026-05-06 11:26 -17.35685 123.65642 952 ft 160 kts 112°
2026-05-06 11:26 -17.36164 123.66717 1107 ft 160 kts 116°
2026-05-06 11:27 -17.36663 123.67735 1220 ft 156 kts 117°
2026-05-06 11:27 -17.36804 123.68007 1245 ft 154 kts 117°
2026-05-06 11:28 -17.37052 123.68488 1258 ft 152 kts 117°
2026-05-06 11:28 -17.37347 123.69042 1256 ft 143 kts 129°